Voltar ao catálogo

STARLINK-36054

AtivoComunicaçõesVLEO
NORAD 66812·PAYLOAD·🇺🇸 United States

Lançado Dec 1, 2025 de Cape Canaveral Space Force Station

Loading…

Próximas Passagens (próximas 24 horas)

TLE

AtualizadoSource: CelesTrak SupGP

Época: Sep 15, 2026, 03:28 UTC

1 66812C 25278X   26258.14493056  .00046504  00000+0  16841-2 0  2580
2 66812  43.0016 124.4464 0001419 273.9066  82.9721 15.27561551    10

Acompanhe STARLINK-36054 em tempo real com AllMySat

Download on the App Store